www.pogodaiklimat.ru

Погода и климат >> Архив погоды >> Россия >> Якутия >> Ярольин


ПОГОДА в Ярольине

  • Прогноз погоды в Ярольине
  • Монитор погоды в Ярольине

АРХИВ ПОГОДЫ в Ярольине

Время (UTC), дата Ветер
(напр.,м/с)
 
Видим.   Явления Облачность Т
(С)
Тd
(С)
f
(%)
Тe
(С)
Тes
(С)
Комфортность P
(гПа)
Po
(гПа)
Тmin
(С)
Tmax
(С)
R
(мм)
R24
(мм)
S
(см)
00 18.03 З 1 50 км 10/0
[Ac trans Cs]
-35.4 -37.7 79 -40 -40 опасность
обморожения
1028.7 994.5 -36.7 17
03 18.03 штиль 0 50 км 10/0
[Ac trans Cs]
-26.4 -29.6 74 -26 -24 1027.1 994.2
06 18.03 штиль 0 50 км 10/0
[Ac As Cs]
-17.6 -22.6 65 -18 -15 1025.5 993.6
09 18.03 СЗ 1 50 км 10/0
[Ac As Cs]
-15.4 -21.4 60 -18 -17 1024.6 993.2
12 18.03 З 1 50 км 10/0
[Ac As Cs]
-16.3 -20.5 70 -19 -19 1024.7 993.2 -15.2
15 18.03 штиль 0 50 км 10/0
[Ac As Cs]
-21.3 -23.8 80 -21 -21 1025.2 993.0
18 18.03 штиль 0 50 км 10/0
[Ac As Cs]
-25.6 -28.1 79 -26 -26 1025.8 993.0
21 18.03 З 1 20 км слаб. снег 10/0
[Ac As Cs]
-26.5 -28.4 84 -30 -30 1025.9 993.1
00 19.03 штиль 0 20 км слаб. снег 10/0
[Ac As Cs]
-28.0 -30.5 79 -28 -28 1026.8 993.6 -28.5 0.0 17
03 19.03 штиль 0 50 км {снег} 3/0
[Cs]
-23.9 -27.1 75 -24 -20 1026.3 993.7
06 19.03 штиль 0 50 км {снег} 1/0
[Ci fib]
-12.6 -18.8 60 -13 -9 1024.4 993.2
09 19.03 штиль 0 50 км ясно -10.3 -17.6 55 -10 -9 1023.6 992.8
12 19.03 штиль 0 50 км ясно -12.9 -19.0 60 -13 -13 1023.9 992.7 -10.1 0.0
15 19.03 штиль 0 50 км ясно -25.4 -27.8 80 -25 -25 1025.3 992.6
18 19.03 штиль 0 50 км ясно -31.0 -33.4 79 -31 -31 опасность
обморожения
1025.6 992.1
21 19.03 штиль 0 50 км 3/0
[Ac lent Ci fib]
-32.2 -34.6 79 -32 -32 опасность
обморожения
1025.2 991.6
00 20.03 штиль 0 50 км 8/0
[Ac lent Cc]
-31.4 -33.6 81 -31 -31 опасность
обморожения
1024.7 991.2 -34.3 17
03 20.03 В 1 50 км 8/0
[Ac lent Cc]
-24.6 -27.9 74 -28 -26 1023.3 990.6
06 20.03 штиль 0 50 км 10/0
[Ac trans Cs]
-15.0 -21.0 60 -15 -12 1021.1 989.8
09 20.03 штиль 0 50 км 10/0
[Cs]
-8.7 -18.6 45 -9 -8 1020.3 989.7
12 20.03 штиль 0 50 км 10/0
[Ac lent Cs]
-9.6 -18.8 47 -10 -10 1020.3 990.5 -8.4
15 20.03 штиль 0 50 км 4/0
[Ac lent]
-22.6 -26.6 70 -23 -23 1023.4 991.0
18 20.03 штиль 0 50 км 1/0
[Ac lent]
-27.9 -30.3 80 -28 -28 1024.6 991.5
21 20.03 штиль 0 20 км слаб. снег 10/0
[Ac lent Cs]
-28.9 -31.4 79 -29 -29 1025.1 991.9
00 21.03 штиль 0 50 км {снег} 3/0
[Ac lent Cs]
-31.0 -33.4 79 -31 -31 опасность
обморожения
1025.3 991.8 -31.2 0.0 17
03 21.03 штиль 0 20 км слаб. снег 10/0
[Cs]
-22.1 -25.4 74 -22 -19 1023.5 991.2
06 21.03 ЮЗ 1 50 км {снег} 8/0
[Cs]
-10.6 -15.9 65 -13 -9 1019.9 989.2
09 21.03 ЮЗ 3 50 км 10/0
[Cs]
-6.5 -14.2 54 -12 -11 1016.8 986.7
12 21.03 Ю 7-11
{12}
50 км позёмок 10/0
[Ac As Cs]
-7.1 -14.0 58 -15 -15 1013.7 983.5 -6.2 0.0
15 21.03 Ю 7-11
{14}
50 км позёмок 10/0
[Ac As Cs]
-6.5 -13.6 57 -15 -15 1009.5 979.5
18 21.03 ЮЗ 7-11
{12}
20 км слаб. снег {метель} 10/0
[As op]
-7.2 -10.6 77 -16 -16 1006.0 976.0
21 21.03 Ю 6-10
{12}
10 км слаб. снег {метель} 10/0
[As op]
-6.0 -8.7 81 -14 -14 1001.2 971.5
00 22.03 ЮЗ 6-10
{11}
10 км слаб. снег {метель} 10/0
[As op]
-5.2 -6.9 88 -13 -13 998.6 969.1 -7.6 0.5 15
03 22.03 ЮЗ 5
{10}
4000 м снег {метель} 10/0
[As op Cs]
-3.8 -6.0 85 -11 -10 997.4 968.1
06 22.03 З 2 50 км в посл. час ливневой снег 8/5 600 м
[Cb cap Cs]
-3.3 -6.5 78 -7 -6 996.7 967.4
09 22.03 З 2 50 км {ливн. осадки} 10/6 600 м
[Cb cap Cs]
-3.1 -7.7 71 -7 -7 996.9 967.6
12 22.03 СЗ 5 2000 м снег {ливн. осадки} 10/0
[As op]
-5.3 -8.6 78 -12 -12 997.8 968.3 -2.9 1
15 22.03 СЗ 6-10
{12}
50 км позёмок {снег} 10/0
[Ac As Cs]
-10.6 -14.2 75 -19 -19 1000.5 970.4
18 22.03 СЗ 6-10
{11}
50 км позёмок {туман} 6/0
[Ac lent]
-19.4 -22.7 75 -30 -30 1006.1 974.8
21 22.03 З 3 50 км позёмок 8/0
[Ac lent Cs]
-23.1 -25.7 79 -31 -31 опасность
обморожения
1009.4 977.5
00 23.03 З 5 10 км слаб. снег {метель} 10/0
[Ac As Cs]
-23.6 -26.2 79 -35 -34 опасность
обморожения
1011.6 979.4 -25.5 0.2 17
03 23.03 СЗ 5 50 км позёмок {снег} 10/0
[Ac As Cs]
-20.6 -24.6 70 -31 -30 опасность
обморожения
1012.5 980.7
06 23.03 СЗ 5 50 км позёмок {снег} 10/0
[Ac As Cs]
-19.0 -23.9 65 -29 -28 1013.5 981.9
09 23.03 СЗ 5 50 км позёмок 4/0
[Ac trans Ci fib]
-18.0 -23.9 60 -28 -27 1015.7 984.2
12 23.03 З 2 50 км {метель} 3/0
[Ac lent]
-18.3 -24.2 60 -24 -24 1017.4 985.8 -17.7 0.0
15 23.03 З 1 50 км 1/0
[Ac lent]
-21.5 -25.5 70 -25 -25 1018.0 986.7
18 23.03 З 1 50 км ясно -29.1 -31.6 79 -33 -33 опасность
обморожения
1020.8 987.7
21 23.03 З 2 50 км ясно -36.2 -38.4 80 -45 -45 опасность
обморожения
1022.8 988.7
00 24.03 З 1 50 км ясно -37.5 -39.9 78 -42 -42 опасность
обморожения
1024.0 989.6 -37.8 16
03 24.03 штиль 0 50 км ясно -27.5 -30.0 79 -28 -23 1022.3 989.5
06 24.03 Ю 1 50 км 1/0
[Cc]
-15.5 -21.5 60 -18 -14 1020.3 989.0
09 24.03 ЮЗ 1 50 км ясно -12.6 -20.9 50 -15 -14 1020.1 989.0
12 24.03 штиль 0 50 км 3/0
[Ac lent]
-13.8 -22.0 50 -14 -14 1020.4 989.2 -12.3
15 24.03 штиль 0 50 км 1/0
[Ac lent]
-27.2 -31.3 68 -27 -27 1021.4 989.4
18 24.03 штиль 0 50 км 1/0
[Ac lent]
-31.6 -34.5 75 -32 -32 опасность
обморожения
1022.8 989.3
21 24.03 штиль 0 50 км ясно -35.3 -38.4 73 -35 -35 опасность
обморожения
1023.4 989.4

 

Местоположение метеостанции Ярольин (Якутия, Россия): широта 67.13 долгота 108.50 высота над уровнем моря 236 м.

В архиве по умолчанию представлена погода в Ярольине за последнюю неделю. Архивные данные за месяц целиком и за предыдущие месяцы, начиная с января 2011 года, Вы можете получить, выбрав интересующий диапазон дат из раскрывающегося списка и нажав кнопку "Ввод!".


*Определитесь, кто Вы:
робот инопланетянин человек

Внимание! Время в таблицах - всемирное. Для получения местного времени необходимо прибавить поправку, которая равна 9 ч.

Смотрите также архив погоды в соседних городах и на ближайших метеорологических станциях:

Погода в Полярном (Якутия, Россия) (176 км)
Погода в Айхале (Якутия, Россия) (187 км)
Погода в Оленеке (Якутия, Россия) (224 км)
Погода в Шелагонцах (Якутия, Россия) (269 км)
Погода в Хабардино (Якутия, Россия) (335 км)
Погода в Джалинде (Якутия, Россия) (399 км)
Погода в Эйке (Якутия, Россия) (412 км)
Погода в Сухане (Якутия, Россия) (442 км)
Погода в Кислокане (Эвенкия, Россия) (449 км)
Погода в Туре (Эвенкия, Россия) (483 км)

Пояснения к столбцам:

Ветер - указаны скорость ветра в м/с - средняя за 10 мин, порывы в срок и между сроками (в фигурных скобках) и направление, откуда дует ветер: С - северный, СВ - северо-восточный, В - восточный, ЮВ - юго-восточный, Ю - южный, ЮЗ - юго-западный, З - западный, СЗ - северо-западный.
Видимость - горизонтальная дальность видимости в метрах или километрах. При видимости от 1 до 10 км при отсутствии осадков обычно наблюдается дымка, при ухудшении видимости до 1 км и менее - туман. В сухую погоду видимость может ухудшаться дымом, пылью или мглою.
Явления - указаны атмосферные явления, наблюдавшиеся в срок или в последний час перед сроком; фигурными скобками обозначены явления, наблюдавшиеся между сроками (за 1-3 часа до срока); квадратными скобками обозначены град или гололедные отложения с указанием их диаметра в мм.
Облачность - указаны через наклонную черту общая и нижняя облачность в баллах и высота нижней границы облаков в метрах; квадратными скобками обозначены формы облаков: Ci - перистые, Cs - перисто-слоистые, Cc - перисто-кучевые, Ac - высококучевые, As - высокослоистые, Sc - слоисто-кучевые, Ns - слоисто-дождевые, Cu - кучевые, Cb - кучево-дождевые. Подробнее классификацию облаков см. в Атласе облаков (PDF).
T - Температура воздуха - температура, измеренная на высоте 2 м над землей.
Td - Температура точки росы - температура, при понижении до которой содержащийся в воздухе водяной пар достигнет насыщения.
f - Относительная влажность воздуха - влажноcть воздуха, измеренная на высоте 2 м над землей.
Te - Эффективная температура - температура, которую ощущает одетый по сезону человек в тени. Характеристика душности погоды. При расчете учитывается влияние влажности воздуха и скорости ветра на теплоощущения человека.
Tes - Эффективная температура на солнце - температура, которую ощущает человек, с поправкой на солнечный нагрев. Характеристика знойности погоды. Зависит от высоты солнца над горизонтом, облачности и скорости ветра. Ночью, в пасмурную погоду, а также при ветре 12 м/с и более поправка равна нулю.
P - Атмосферное давление - приведенное к уровню моря атмосферное давление.
Po - Атмосферное давление - измеренное на уровне метеостанции атмосферное давление.
Tmin - Минимальная температура - минимум температуры воздуха на высоте 2 м над землей.
Tmax - Максимальная температура - максимум температуры воздуха на высоте 2 м над землей.
R - Количество осадков - Количество выпавших осадков за период времени, мм. При наведении курсора мыши на число - период времени, за который выпало указанное количество осадков.
R24 - Количество осадков - Количество выпавших осадков за 24 часа, мм.
S - Снежный покров - Высота снежного покрова, см. При наведении курсора мыши на число - состояние снежного покрова и степень покрытия местности в баллах.